OBJECT QX

Last updated on Fri Dec 06 2019 00:02:12 GMT+0000 (Coordinated Universal Time)

1 44792U 98067QX 19337.24822904 -.00000462 00000-0 00000+0 0 9992 2 44792 51.6435 243.0862 0005603 11.2126 127.1345 15.50667283 2002
UTC large
Height (km)
Speed (km/s)
/
Latitude / Longitude
Inclination (degrees)
Orbital Period (minutes)
Azimuth
Elevation
Range (km)
Doppler Factor

Next 0 passes for location: London (51.5072 / 0.1276)

Sorry there are no passes over London.